Weather WX

World > North America > United States > New Jersey

Wharton, New Jersey Regional Weather

Lat: 40.89N, Lon: 74.58W
Wx Zone: NJZ008
Warning FLW WEATHER ALERT - EXCESSIVE HEAT WARNING (More Info. Click Here) Warning
Feedback

Wharton, NJ Regional Weather

Expires:201907192200;;319483
ASUS41 KOKX 192113
RWROKX

Regional Weather Roundup
National Weather Service New York NY
500 PM EDT FRI JUL 19 2019

Note: "FAIR" indicates few or no clouds below 12,000 feet with no
significant weather and/or obstructions to visibility.


NJZ001-105-106-008-010-013-015-019>022-104-192200-
New Jersey
  
CITY           SKY/WX    TMP DP  RH WIND       PRES   REMARKS
Newark/Liberty PTSUNNY   94  74  52 W15       29.83F HX 104           
Teterboro      FAIR      94  74  52 W12       29.81F HX 104           
Caldwell       PTSUNNY   93  75  55 VRB3      29.83F HX 104           
Somerville     FAIR      91  76  61 VRB3      29.82F HX 103           
Linden         FAIR      93  72  50 W5G16     29.84F HX 101           
Perth Amboy      N/A     91 N/A N/A SW16        N/A                   
Sussex         FAIR      92  78  63 VRB6      29.84F HX 107           
Andover          N/A     90  77  65 SW8G16    29.86F HX 103           
Trenton        PTSUNNY   93  74  53 W9        29.86F HX 103           
Millville      FAIR      92  75  57 W9        29.90S HX 103           
Atlantic City  FAIR      94  73  50 SW13      29.89F HX 103           
Wrightstown    FAIR      93  74  54 W14       29.86  HX 104           
Toms River     FAIR      95  78  58 W15       29.88S HX 111           
Belmar         PTSUNNY   92  75  57 SW9       29.88S HX 103           
$$
 

SKY/WX - Weather  TMP - Temperature  DP - Dew Point  RH - Relative Humidity
WIND - Wind Direction/Speed PRES - Barometric Pressure VSB - Visibility
WCI - Wind Chill Index E13G22 Wind - East Wind 13 mph/Gusts of 22 mph